Orbital Elements at Epoch 2459200.5 (2020-Dec-17.0) TDB
Reference: JPL 18 (heliocentric ecliptic J2000)
Element | Value | Uncertainty (1-sigma) | Units |
e | .294176678069808 | 3.4567e-07 | |
a | .9447606246012006 | 7.4669e-09 | au |
q | .6668340824848624 | 3.2888e-07 | au |
i | 26.56368334275879 | 4.5958e-05 | deg |
node | 325.6584902010311 | 2.3277e-05 | deg |
peri | 195.9976120188436 | 0.00012665 | deg |
M | 262.2977195456874 | 0.00017321 | deg |
tp | 2459291.529740285425 (2021-Mar-18.02974029) | 0.0001608 | TDB |
period | 335.4139366079306 0.92 | 3.9764e-06 1.089e-08 | d yr |
n | 1.073300661387867 | 1.2724e-08 | deg/d |
Q | 1.222687166717539 | 9.6635e-09 | au |
|
| | Orbit Determination Parameters
Additional Information
|